CAO61P LEBL-LSGG

Flight info

Callsign CAO61P
Flight time N/A
Altitude 34000
Route DALIN DCT PIVUS DCT DIBER DCT ADITA DCT MAXIR DCT LUSOL DCT BODRU DCT OKTET DCT IRMAR DCT KINES
Aircraft B77L/H-SDE1E2E3FGHIJ2J3J4J5M1RWXY/LB1D1

Departure

Time N/A
Airport Josep Tarradellas Barcelona-El Prat Airport (LEBL)

Arrival

Time 2026-05-04 18:36
Airport Geneva International Airport (LSGG)
Time Latitude Longitude Altitude Speed Heading
2026-05-04 18:14 44.94391 6.78169 33117 ft 501 kts 352°
2026-05-04 18:14 44.97868 6.77884 33119 ft 500 kts 353°
2026-05-04 18:15 45.12913 6.76854 33144 ft 502 kts 353°
2026-05-04 18:15 45.16390 6.76631 33017 ft 496 kts 353°
2026-05-04 18:16 45.18660 6.76485 32766 ft 491 kts 353°
2026-05-04 18:16 45.22061 6.76261 32018 ft 490 kts 354°
2026-05-04 18:16 45.25489 6.76033 30992 ft 497 kts 354°
2026-05-04 18:17 45.32458 6.75571 29195 ft 501 kts 355°
2026-05-04 18:17 45.35904 6.75104 28528 ft 494 kts 348°
2026-05-04 18:17 45.42527 6.73149 27361 ft 479 kts 344°
2026-05-04 18:18 45.45732 6.72142 26646 ft 476 kts 345°
2026-05-04 18:18 45.48971 6.71212 25959 ft 473 kts 346°
2026-05-04 18:18 45.52196 6.70333 25295 ft 469 kts 347°
2026-05-04 18:18 45.55391 6.69492 24665 ft 465 kts 347°
2026-05-04 18:19 45.61703 6.67879 23424 ft 458 kts 347°
2026-05-04 18:19 45.64828 6.67073 22725 ft 454 kts 347°
2026-05-04 18:19 45.67920 6.66279 22108 ft 449 kts 347°
2026-05-04 18:20 45.70985 6.65486 21424 ft 447 kts 347°
2026-05-04 18:20 45.73991 6.64703 20789 ft 443 kts 347°
2026-05-04 18:20 45.77006 6.63908 20166 ft 436 kts 346°
2026-05-04 18:20 45.79941 6.63119 19637 ft 422 kts 346°
2026-05-04 18:21 45.82793 6.62346 19138 ft 416 kts 345°
2026-05-04 18:21 45.85672 6.61561 18637 ft 427 kts 346°
2026-05-04 18:21 45.88624 6.60750 18064 ft 437 kts 346°
2026-05-04 18:21 45.91633 6.59928 17570 ft 443 kts 346°
2026-05-04 18:22 45.94629 6.59118 17058 ft 434 kts 346°
2026-05-04 18:22 45.97570 6.58320 16465 ft 425 kts 346°
2026-05-04 18:22 46.00407 6.57552 15944 ft 417 kts 346°
2026-05-04 18:22 46.03194 6.56626 15438 ft 405 kts 336°
2026-05-04 18:23 46.05593 6.54632 14932 ft 401 kts 317°
2026-05-04 18:23 46.07465 6.51667 14504 ft 401 kts 302°
2026-05-04 18:23 46.08990 6.48313 14160 ft 395 kts 300°
2026-05-04 18:23 46.10482 6.45056 13466 ft 385 kts 301°
2026-05-04 18:24 46.11962 6.41886 12853 ft 378 kts 301°
2026-05-04 18:24 46.13434 6.38756 12842 ft 376 kts 301°
2026-05-04 18:24 46.14868 6.35713 12749 ft 357 kts 302°
2026-05-04 18:24 46.16374 6.32990 12593 ft 341 kts 317°
2026-05-04 18:25 46.18373 6.31388 12468 ft 330 kts 342°
2026-05-04 18:25 46.20610 6.30981 12353 ft 321 kts
2026-05-04 18:25 46.22774 6.31558 12153 ft 314 kts 16°
2026-05-04 18:25 46.24762 6.32794 11878 ft 310 kts 32°
2026-05-04 18:26 46.26351 6.34844 11632 ft 304 kts 47°
2026-05-04 18:26 46.27771 6.37073 11415 ft 298 kts 46°
2026-05-04 18:26 46.29198 6.39249 11008 ft 299 kts 46°
2026-05-04 18:26 46.30638 6.41418 10485 ft 298 kts 46°
2026-05-04 18:27 46.32075 6.43553 9975 ft 295 kts 46°
2026-05-04 18:27 46.33486 6.45647 9445 ft 292 kts 46°
2026-05-04 18:27 46.34896 6.47737 8891 ft 289 kts 46°
2026-05-04 18:27 46.36292 6.49806 8368 ft 285 kts 45°
2026-05-04 18:28 46.37915 6.51381 7805 ft 281 kts 14°
2026-05-04 18:28 46.39788 6.51408 7522 ft 264 kts 340°
2026-05-04 18:28 46.41375 6.50174 7261 ft 260 kts 316°
2026-05-04 18:28 46.42578 6.48221 6895 ft 260 kts 297°
2026-05-04 18:29 46.43182 6.45814 6432 ft 252 kts 273°
2026-05-04 18:29 46.43103 6.43286 6265 ft 248 kts 254°
2026-05-04 18:29 46.42474 6.41050 5981 ft 236 kts 233°
2026-05-04 18:29 46.41549 6.39209 5816 ft 224 kts 230°
2026-05-04 18:30 46.39707 6.35698 5497 ft 216 kts 230°
2026-05-04 18:30 46.38826 6.33987 5224 ft 205 kts 231°
2026-05-04 18:30 46.38006 6.32380 4974 ft 192 kts 230°
2026-05-04 18:31 46.37201 6.30834 4762 ft 194 kts 228°
2026-05-04 18:31 46.36324 6.29381 4505 ft 187 kts 224°
2026-05-04 18:31 46.35450 6.28057 4242 ft 177 kts 224°
2026-05-04 18:31 46.34637 6.26850 4056 ft 158 kts 224°
2026-05-04 18:32 46.33893 6.25750 3896 ft 149 kts 223°
2026-05-04 18:32 46.33164 6.24677 3706 ft 151 kts 224°
2026-05-04 18:32 46.32436 6.23603 3519 ft 152 kts 224°
2026-05-04 18:32 46.31698 6.22513 3310 ft 152 kts 224°
2026-05-04 18:33 46.30957 6.21420 3101 ft 152 kts 224°
2026-05-04 18:33 46.30219 6.20333 2883 ft 152 kts 225°
2026-05-04 18:33 46.29479 6.19245 2642 ft 153 kts 225°
2026-05-04 18:33 46.28739 6.18156 2428 ft 150 kts 226°
2026-05-04 18:34 46.28002 6.17079 2200 ft 150 kts 225°
2026-05-04 18:34 46.27286 6.16038 1997 ft 148 kts 226°
2026-05-04 18:34 46.26572 6.14964 1797 ft 147 kts 226°
2026-05-04 18:34 46.25858 6.13911 1627 ft 146 kts 226°
2026-05-04 18:35 46.25146 6.12864 1438 ft 145 kts 226°
2026-05-04 18:35 46.24474 6.11875 1374 ft 125 kts 225°
2026-05-04 18:35 46.23950 6.11105 1380 ft 90 kts 225°
2026-05-04 18:35 46.23596 6.10588 1385 ft 55 kts 226°
2026-05-04 18:36 46.23410 6.10315 1408 ft 29 kts 224°
2026-05-04 18:36 46.23278 6.10167 1408 ft 16 kts 208°
2026-05-04 18:36 46.23212 6.10123 1411 ft 10 kts 200°
2026-05-04 18:36 46.23157 6.10099 1409 ft 7 kts 195°
2026-05-04 18:37 46.23128 6.10094 1409 ft 2 kts 181°
2026-05-04 18:37 46.23113 6.10098 1407 ft 2 kts 165°
2026-05-04 18:37 46.23089 6.10132 1405 ft 7 kts 112°
2026-05-04 18:37 46.23105 6.10195 1404 ft 7 kts 51°
2026-05-04 18:38 46.23140 6.10254 1408 ft 9 kts 49°
2026-05-04 18:38 46.23193 6.10338 1406 ft 13 kts 46°
2026-05-04 18:38 46.23253 6.10428 1404 ft 13 kts 46°
2026-05-04 18:38 46.23314 6.10518 1406 ft 13 kts 45°
2026-05-04 18:39 46.23377 6.10606 1407 ft 13 kts 43°
2026-05-04 18:39 46.23439 6.10691 1405 ft 13 kts 44°
2026-05-04 18:39 46.23506 6.10788 1404 ft 14 kts 45°
2026-05-04 18:39 46.23574 6.10888 1401 ft 14 kts 45°
2026-05-04 18:40 46.23643 6.10990 1406 ft 14 kts 45°
2026-05-04 18:40 46.23704 6.11079 1401 ft 10 kts 45°
2026-05-04 18:40 46.23757 6.11156 1383 ft 10 kts 45°
2026-05-04 18:40 46.23788 6.11217 1378 ft 7 kts 79°
2026-05-04 18:41 46.23763 6.11275 1380 ft 6 kts 135°
2026-05-04 18:41 46.23751 6.11293 1381 ft 1 kts 136°
2026-05-04 18:41 46.23748 6.11297 1381 ft 0 kts 136°